Track FORMOSAT 3E now! 10-day predictions FORMOSAT 3E is classified as:
1 29051U 06011E 22183.65110104 .00000165 00000-0 79318-4 0 9993 2 29051 72.0051 15.2991 0066875 75.7675 285.0878 14.29077381848639